Tillbaka till svenska Fidonet
English   Information   Debug  
FILM   0/18
FNEWS_PUBLISH   4983
FN_SYSOP   42232
FN_SYSOP_OLD1   71952
FTP_FIDO   0/2
FTSC_PUBLIC   0/13976
FUNNY   0/4886
GENEALOGY.EUR   0/71
GET_INFO   105
GOLDED   0/408
HAM   6351/16726
HOLYSMOKE   0/6791
HOT_SITES   0/1
HTMLEDIT   0/71
HUB203   466
HUB_100   264
HUB_400   39
HUMOR   0/29
IC   999/2851
INTERNET   0/424
INTERUSER   0/3
IP_CONNECT   719
JAMNNTPD   0/233
JAMTLAND   0/47
KATTY_KORNER   0/41
LAN   0/16
LINUX-USER   0/19
LINUXHELP   0/1155
LINUX   0/22392
LINUX_BBS   0/957
mail   18.68
mail_fore_ok   249
MENSA   0/341
MODERATOR   0/102
MONTE   0/992
MOSCOW_OKLAHOMA   0/1245
MUFFIN   0/783
MUSIC   0/321
N203_STAT   938
N203_SYSCHAT   313
NET203   321
NET204   69
NET_DEV   0/10
NORD.ADMIN   0/101
NORD.CHAT   0/2572
NORD.FIDONET   189
NORD.HARDWARE   0/28
NORD.KULTUR   0/114
NORD.PROG   0/32
NORD.SOFTWARE   0/88
NORD.TEKNIK   0/58
NORD   0/453
OCCULT_CHAT   0/93
OS2BBS   0/787
OS2DOSBBS   0/580
OS2HW   0/42
OS2INET   0/37
OS2LAN   0/134
OS2PROG   0/36
OS2REXX   0/113
OS2USER-L   207
OS2   0/4831
OSDEBATE   0/18996
PASCAL   0/490
PERL   0/457
PHP   0/45
POINTS   0/405
POLITICS   0/29554
POL_INC   1167/14731
PSION   103
R20_ADMIN   1133
R20_AMATORRADIO   0/2
R20_BEST_OF_FIDONET   16
R20_CHAT   0/897
R20_DEPP   0/3
R20_DEV   400
R20_ECHO2   1891
R20_ECHOPRES   0/35
R20_ESTAT   0/719
R20_FIDONETPROG...
...RAM.MYPOINT
  0/2
R20_FIDONETPROGRAM   0/22
R20_FIDONET   0/248
R20_FILEFIND   0/24
R20_FILEFOUND   0/22
R20_HIFI   0/3
R20_INFO2   3783
R20_INTERNET   0/12940
R20_INTRESSE   0/60
R20_INTR_KOM   0/99
R20_KANDIDAT.CHAT   42
R20_KANDIDAT   28
R20_KOM_DEV   112
R20_KONTROLL   0/13360
R20_KORSET   0/18
R20_LOKALTRAFIK   0/24
R20_MODERATOR   0/1852
R20_NC   76
R20_NET200   245
R20_NETWORK.OTH...
...ERNETS
  0/13
R20_OPERATIVSYS...
...TEM.LINUX
  0/44
R20_PROGRAMVAROR   0/1
R20_REC2NEC   534
R20_SFOSM   0/341
R20_SF   0/108
R20_SPRAK.ENGLISH   0/1
R20_SQUISH   107
R20_TEST   2
R20_WORST_OF_FIDONET   20
RAR   0/9
RA_MULTI   106
RA_UTIL   0/162
REGCON.EUR   0/2069
REGCON   0/13
SCIENCE   0/1206
SF   0/239
SHAREWARE_SUPPORT   0/5146
SHAREWRE   0/14
SIMPSONS   0/169
STATS_OLD1   1518/2539.065
STATS_OLD2   0/2530
STATS_OLD3   0/2395.095
STATS_OLD4   0/1692.25
SURVIVOR   0/495
SYSOPS_CORNER   0/3
SYSOP   0/84
TAGLINES   0/112
TEAMOS2   0/4530
TECH   0/2617
TEST.444   0/105
TRAPDOOR   0/19
TREK   0/755
TUB   0/290
UFO   0/40
UNIX   0/1316
USA_EURLINK   0/102
USR_MODEMS   0/1
VATICAN   0/2740
VIETNAM_VETS   0/14
VIRUS   0/378
VIRUS_INFO   0/201
VISUAL_BASIC   0/473
WHITEHOUSE   0/5187
WIN2000   0/101
WIN32   0/30
WIN95   246/4291
WIN95_OLD1   0/70272
WINDOWS   1033/1517
WWB_SYSOP   0/419
WWB_TECH   204/810
ZCC-PUBLIC   0/1
ZEC   4

 
4DOS   0/134
ABORTION   0/7
ALASKA_CHAT   0/506
ALLFIX_FILE   0/1313
ALLFIX_FILE_OLD1   0/7997
ALT_DOS   0/152
AMATEUR_RADIO   0/1039
AMIGASALE   0/14
AMIGA   0/331
AMIGA_INT   0/1
AMIGA_PROG   0/20
AMIGA_SYSOP   0/26
ANIME   0/15
ARGUS   0/924
ASCII_ART   0/340
ASIAN_LINK   0/651
ASTRONOMY   0/417
AUDIO   0/92
AUTOMOBILE_RACING   0/105
BABYLON5   0/17862
BAG   135
BATPOWER   0/361
BBBS.ENGLISH   0/382
BBSLAW   0/109
BBS_ADS   0/5290
BBS_INTERNET   0/507
BIBLE   867/3563
BINKD   0/1119
BINKLEY   0/215
BLUEWAVE   0/2173
CABLE_MODEMS   0/25
CBM   0/46
CDRECORD   0/66
CDROM   0/20
CLASSIC_COMPUTER   0/378
COMICS   0/15
CONSPRCY   0/899
COOKING   42028
COOKING_OLD1   0/24719
COOKING_OLD2   14470/40862
COOKING_OLD3   0/37489
COOKING_OLD4   15453/35496
COOKING_OLD5   9370
C_ECHO   0/189
C_PLUSPLUS   0/31
DIRTY_DOZEN   0/201
DOORGAMES   0/2333
DOS_INTERNET   0/196
duplikat   6102
ECHOLIST   11858/18295
EC_SUPPORT   257/318
ELECTRONICS   0/359
ELEKTRONIK.GER   1534
ENET.LINGUISTIC   0/13
ENET.POLITICS   0/4
ENET.SOFT   0/11701
ENET.SYSOP   34336
ENET.TALKS   0/32
ENGLISH_TUTOR   0/2000
EVOLUTION   338/1335
FDECHO   0/217
FDN_ANNOUNCE   3400/7068
FIDONEWS   25122
FIDONEWS_OLD1   0/49742
FIDONEWS_OLD2   0/35949
FIDONEWS_OLD3   0/30874
FIDONEWS_OLD4   0/37224
FIDO_SYSOP   12973
FIDO_UTIL   0/180
FILEFIND   0/209
FILEGATE   0/212
Möte HAM, 16726 texter
 lista första sista föregående nästa
Text 3059, 787 rader
Skriven 2009-07-02 23:00:20 av Amsat List (1:323/120.0)
Ärende: [keps]  orb09183.amsa
=============================
[keps]  orb09183.amsa

Return-Path: <keps-bounces@amsat.org>
X-Rcpt: craig.healy@chowda.com
X-UIDL: 1246590047.1033

SB KEPS @ AMSAT  $ORB09183.O
Orbital Elements  09183.OSCAR

HR AMSAT ORBITAL ELEMENTS FOR OSCAR SATELLITES
FROM WA5QGD FORT WORTH,TX July 2, 2009
Send Subscribe/unsubscribe to KEPS at 
http://www.amsat.org/mailman/listinfo/keps
BID: ORB09183.O
TO ALL RADIO AMATEURS BT

Satellite: AO-07
Catalog number: 07530
Epoch time:      09182.77311510
Element set:    190
Inclination:      101.4266 deg
RA of node:       206.9140 deg
Eccentricity:    0.0011643
Arg of perigee:   238.7757 deg
Mean anomaly:     121.2173 deg
Mean motion:   12.53575826 rev/day
Decay rate:       -2.7e-07 rev/day^2
Epoch rev:           58454
Checksum:              281

Satellite: FO-29
Catalog number: 24278
Epoch time:      09182.71877846
Element set:    0769
Inclination:      098.5528 deg
RA of node:       054.8007 deg
Eccentricity:    0.0350211
Arg of perigee:   312.8781 deg
Mean anomaly:     044.3432 deg
Mean motion:   13.52943547 rev/day
Decay rate:      -1.24e-06 rev/day^2
Epoch rev:           63571
Checksum:              330

Satellite: SO-33
Catalog number: 25509
Epoch time:      09182.73474374
Element set:     487
Inclination:      031.4321 deg
RA of node:       330.2298 deg
Eccentricity:    0.0354090
Arg of perigee:   105.7355 deg
Mean anomaly:     258.2598 deg
Mean motion:   14.28253975 rev/day
Decay rate:       -1.8e-07 rev/day^2
Epoch rev:           55791
Checksum:              326

Satellite: RS-22
Catalog number: 27939
Epoch time:      09182.83157652
Element set:    04
Inclination:      097.9433 deg
RA of node:       057.1670 deg
Eccentricity:    0.0014797
Arg of perigee:   086.9437 deg
Mean anomaly:     273.3479 deg
Mean motion:   14.63326015 rev/day
Decay rate:      .4.0 e-06 rev/day^2
Epoch rev:           30771
Checksum:              319

Satellite: VO-52
Catalog number: 28650
Epoch time:      09182.83982243
Element set:    2636
Inclination:      097.7416 deg
RA of node:       243.9371 deg
Eccentricity:    0.0026618
Arg of perigee:   344.2726 deg
Mean anomaly:     015.7618 deg
Mean motion:   14.81596860 rev/day
Decay rate:      -1.58e-06 rev/day^2
Epoch rev:           22481
Checksum:              336

/EX
SB KEPS @ AMSAT  $ORB09183.D
Orbital Elements  09183.MICROS

HR AMSAT ORBITAL ELEMENTS FOR THE MICROSATS
FROM WA5QGD FORT WORTH,TX July 2, 2009
Send Subscribe/unsubscribe to KEPS at 
http://www.amsat.org/mailman/listinfo/keps
BID: ORB09183.D
TO ALL RADIO AMATEURS BT

Satellite: AO-16
Catalog number: 20439
Epoch time:      09183.50802374
Element set:     641
Inclination:      098.2792 deg
RA of node:       151.2130 deg
Eccentricity:    0.0011729
Arg of perigee:   122.6313 deg
Mean anomaly:     237.6008 deg
Mean motion:   14.31827582 rev/day
Decay rate:        1.7e-07 rev/day^2
Epoch rev:            1534
Checksum:              273

Satellite: LO-19
Catalog number: 20442
Epoch time:      09182.65418699
Element set:    5590
Inclination:      098.2419 deg
RA of node:       157.6050 deg
Eccentricity:    0.0012920
Arg of perigee:   122.3976 deg
Mean anomaly:     237.8469 deg
Mean motion:   14.32062403 rev/day
Decay rate:       -7.8e-07 rev/day^2
Epoch rev:           01538
Checksum:              318

Satellite: AO-27
Catalog number: 22825
Epoch time:      09182.84687692
Element set:    2814
Inclination:      098.4362 deg
RA of node:       135.8087 deg
Eccentricity:    0.0007896
Arg of perigee:   215.8340 deg
Mean anomaly:     144.2308 deg
Mean motion:   14.29268103 rev/day
Decay rate:       -6.3e-07 rev/day^2
Epoch rev:           82200
Checksum:              321

Satellite: IO-26
Catalog number: 22826
Epoch time:      09182.76450543
Element set:       7
Inclination:      098.4305 deg
RA of node:       136.4719 deg
Eccentricity:    0.0008295
Arg of perigee:   212.8419 deg
Mean anomaly:     147.2254 deg
Mean motion:   14.29520626 rev/day
Decay rate:        9.0e-08 rev/day^2
Epoch rev:           82209
Checksum:              304

Satellite: GO-32
Catalog number: 25397
Epoch time:      09182.76663270
Element set:    9333
Inclination:      098.3255 deg
RA of node:       204.3258 deg
Eccentricity:    0.0001164
Arg of perigee:   160.3494 deg
Mean anomaly:     199.7748 deg
Mean motion:   14.23159621 rev/day
Decay rate:      -1.62e-06 rev/day^2
Epoch rev:           57020
Checksum:              314

Satellite: NO-44
Catalog number: 26931
Epoch time:      09182.83659350
Element set:    061
Inclination:      067.0534 deg
RA of node:       026.6032 deg
Eccentricity:    0.0005709
Arg of perigee:   274.2632 deg
Mean anomaly:     085.7782 deg
Mean motion:   14.29560473 rev/day
Decay rate:       -5.7e-07 rev/day^2
Epoch rev:           40467
Checksum:              309

Satellite: SO-50
Catalog number: 27607
Epoch time:      09182.80025571
Element set:    250
Inclination:      064.5601 deg
RA of node:       340.7069 deg
Eccentricity:    0.0065384
Arg of perigee:   202.2847 deg
Mean anomaly:     157.5396 deg
Mean motion:   14.71444207 rev/day
Decay rate:       -8.9e-07 rev/day^2
Epoch rev:           35082
Checksum:              301

Satellite: CO-55
Catalog number: 27844
Epoch time:      09183.55729194
Element set:     613
Inclination:      098.7129 deg
RA of node:       192.5045 deg
Eccentricity:    0.0011062
Arg of perigee:   097.9347 deg
Mean anomaly:     262.3085 deg
Mean motion:   14.20644658 rev/day
Decay rate:        3.3e-07 rev/day^2
Epoch rev:           31144
Checksum:              315

